Terminal Aerodrome Forecast
Issued by NWS St Louis, MO

Home | Current Version | Previous Version | Text Only | Print | Product List | Glossary On
Versions: 1 2 3 4 5 6 7 8 9 10 11 12 13 14 15 16 17 18 19 20 21 22 23 24 25 26 27 28
000
FTUS43 KLSX 150313 AAB
TAFSTL
TAF AMD
KSTL 150313Z 1503/1606 31004KT P6SM OVC035
      TEMPO 1503/1506 OVC030
     FM150900 26004KT P6SM BKN080
     FM151800 28010G17KT P6SM SCT040
     FM160000 24005KT P6SM FEW250=

USA.gov is the U.S. government's official web portal to all federal, state and local government web resources and services.